FIREFLY ALPHA R/B, 60210

Orbit data source: Space-Track

FIREFLY ALPHA R/B, 60210 is space debris in SSO originally from a launch on Thu, 04 Jul 2024 UTC launched from the Air Force Western Test Range (AFWTR). Debris objects in space refer to the collection of defunct objects orbiting the Earth. Examples of debris include non-operational satellites, rocket bodies, and fragments generated from explosions, collisions, or faulty payload assembly.

Loading next visibility...
Identifier
60210, 2024-125H
Orbit
SSO
Country
Flag of USUS
Related business
Manufacturer
Firefly
Mission
Spacecraft
Bus & Motor
FIREFLY A2, Unknown motor
Mass
909 kg wet, 909 kg dry
Launch date (UTC)
2024-07-04 (1 year ago)
Launch vehicle
Unknown
Launch site
Air Force Western Test Range (AFWTR)
Object type
Payload
Rocket body
Debris
Shape & HBR
Unknown
Radar Cross Section
Large (>1 m²)

Expand to show TLE details & history
Last TLE update: 10 hours ago

TLE from 10 hours ago
0 FIREFLY ALPHA R/B
1 60210U 24125H   25258.56413954  .00024875  00000-0  50735-3 0  9991
2 60210  97.2564 114.3213 0035899 117.6630 242.8271 15.45484469 67297
Epoch: 2025-09-15T13:32Z
TLE epoch observation values (Epoch: 2025-09-15T13:32:21.656Z)
Latitude
0.00006°
Longitude
-83.53593°
Altitude
444.317 km
Speed
7.639 km/s
True Right ascension
07h 37m 17s
True Declination
0° 00' 00"
Sunlit
Object was in daylight at epoch
Visualization orbit readout
Latitude
Unknown
Longitude
Unknown
Altitude
Unknown
Speed
Unknown
Apparent Right ascension
Unknown
Apparent Declination
Unknown
Sunlit
N/A
Visualization observer readout
Local Sidereal Time
15:47:20
Azimuth
Unknown
Elevation
Unknown
Doppler factor
Unknown
Orbital elements
Apogee altitude
451.31 km
Perigee altitude
402.451 km
Semi-major axis
6,805.017 km
Eccentricity
0.00359
Inclination
97.2564°
RAAN
114.3213°
Arg. of periapsis
117.663°
True anomaly
242.46188°
Mean anomaly
242.8271°
Eccentric anomaly
242.64442°
Mean motion
3.86633 °/min
Orbital period
93.11 mins
BSTAR
0.00050735
Loading maneuver chart data...
Computing Atmospheric mass density...
Loading historical data...
Loading historical data...
Loading historical data...
Loading historical data...
Loading historical data...
Loading historical data...
Loading historical data...

Documentation

Showing up to 5 results
|